Weather Roundup
Issued by NWS Chicago, IL

Home | Current Version | Previous Version | Graphics & Text | Print | Product List | Glossary On
Versions: 1 2 3 4 5 6 7 8 9 10 11 12 13 14 15 16 17 18 19 20 21 22 23 24 25 26 27 28 29 30 31 32 33 34 35 36 37 38 39 40 41 42 43 44 45 46 47 48 49 50
995
NZUS59 KLOT 211303
HRRLOT

CHICAGO AREA WEATHER ROUNDUP
NATIONAL WEATHER SERVICE CHICAGO/ROMEOVILLE IL
700 AM CST TUE FEB 21 2017

NOTE: "FAIR" INDICATES FEW OR NO CLOUDS BELOW 12,000 FEET WITH NO
SIGNIFICANT WEATHER AND/OR OBSTRUCTIONS TO VISIBILITY.

* THESE STATIONS ARE NOT UNDER NWS QUALITY CONTROL. THEY ALSO MAY NOT
  REPORT WEATHER SUCH AS PRECIPITATION OR FOG.

ILZ005-006-012>014-019>023-211400-
NORTHEAST ILLINOIS

CITY           SKY/WX    TMP DP  RH WIND       PRES   REMARKS
OHARE          LGT RAIN  55  52  89 SW3       29.92R FOG
MIDWAY         LGT RAIN  54  51  90 S7        29.93R FOG
AURORA         CLOUDY    54  52  93 SW6       29.94R FOG
LANSING*       LGT RAIN  52  51  99 S6        29.95R
JOLIET*        LGT RAIN  55  54  99 S3        29.93F
WAUKEGAN       CLOUDY    53  52  96 SW5       29.90R FOG
DUPAGE AIRPORT CLOUDY    54  51  90 SW6       29.93R FOG
WHEELING       CLOUDY    54  52  93 S3        29.93R
KANKAKEE*      LGT RAIN  52  51  97 CALM      29.96R
MORRIS*        LGT RAIN  52  51  97 CALM      29.93F
LEWIS AIRPORT* LGT RAIN  52  52 100 S5        29.93S
NORTHERLY ISL    N/A     54  51  90 S6          N/A
$$

WIZ051-052-058>065-066-070>072-211400-
SOUTHEAST WISCONSIN

CITY           SKY/WX    TMP DP  RH WIND       PRES   REMARKS
MILWAUKEE      CLOUDY    55  52  89 SW7       29.88S FOG
KENOSHA*       CLOUDY    54  52  93 SW13      29.89S FOG
RACINE*        CLOUDY    55  52  89 W9        29.90S
WAUKESHA       CLOUDY    52  52 100 W8        29.89R FOG
$$

INZ001>003-010>013-019-020-211400-
NORTHWEST INDIANA

CITY           SKY/WX    TMP DP  RH WIND       PRES   REMARKS
GARY*          LGT RAIN  55  50  82 S8        29.95R
MICHIGAN CITY* NOT AVBL
RENSSELAER*    NOT AVBL
VALPARAISO     CLOUDY    53  49  86 S5        29.97R
$$

LMZ740>746-211400-
SOUTHERN LAKE MICHIGAN

STATION/POSITION TIME  SKY/WX   TEMP WIND        PRES    VSBY
                                AIR  DIR/SP/G
                 (UTC)          (F)  (DEG/KT/KT) (MB)    (MI)
HARRISON CRIB    1240            54  190/ 14/ 14   N/A
BURNHAM HARBOR   1300            54  200/  7/ 10   N/A
CALUMET HARBOR   1230            54  180/  5/  7 1012.7R
BURNS HARBOR     1240            55  170/ 11/ 14 1014.2R
MICHIGAN CITY    1240            54  130/ 11/ 13   N/A
$$

ABBREVIATIONS USED IN REMARKS
   TC - TEMPERATURE IN CELSIUS
  WCI - WIND CHILL INDEX
   HX - HEAT INDEX
  VSB - VISIBILITY
$$




USA.gov is the U.S. government's official web portal to all federal, state and local government web resources and services.